FENGYUN 1C DEB, 31773

Orbit data source: Space-Track

FENGYUN 1C DEB, 31773 is space debris in SSO originally from a launch on Mon, 10 May 1999 UTC launched from the Taiyaun Space Center, China (TSC). Fengyun 1C debris stems from the Chinese weather satellite Fengyun-1C, which was intentionally destroyed by a Chinese anti-satellite missile in 2007. This event dramatically increased the amount of space debris, with thousands of trackable fragments posing hazards to satellites and human spaceflight. The Fengyun 1C debris cloud has become a focal point in discussions about space sustainability and the need for international regulations to prevent the creation of new debris.

Loading next visibility...
Identifier
31773, 1999-025CFY
Orbit
SSO
Country
Flag of CNCN / PRC
Related business
Manufacturer
Unknown
Mission
Spacecraft
Bus & Motor
Unknown
Mass
Unknown
Launch date (UTC)
1999-05-10 (27 years ago)
Launch vehicle
Unknown
Launch site
Taiyaun Space Center, China (TSC)
Object type
Payload
Rocket body
Debris
Shape & HBR
Unknown shape, 0.1 m
Radar Cross Section
Small (<0.1 m²)

Expand to show TLE details & history
Last TLE update: 2 weeks ago

TLE from 2 weeks ago
0 FENGYUN 1C DEB
1 31773U 99025CFY 26157.25666186  .00019569  00000-0  26818-2 0  9994
2 31773  98.9512 171.8348 0035004 354.7132   5.3701 14.78070640677638
Epoch: 2026-06-06T06:09Z
TLE epoch observation values (Epoch: 2026-06-06T06:09:35.584Z)
Latitude
-0.00004°
Longitude
-175.23829°
Altitude
613.959 km
Speed
7.565 km/s
True Right ascension
11h 27m 20s
True Declination
0° 00' 00"
Sunlit
Object was in daylight at epoch
Visualization orbit readout
Latitude
Unknown
Longitude
Unknown
Altitude
Unknown
Speed
Unknown
Apparent Right ascension
Unknown
Apparent Declination
Unknown
Sunlit
N/A
Visualization observer readout
Local Sidereal Time
05:34:47
Azimuth
Unknown
Elevation
Unknown
Doppler factor
Unknown
Orbital elements
Apogee altitude
657.054 km
Perigee altitude
607.974 km
Semi-major axis
7,010.651 km
Eccentricity
0.0035
Inclination
98.9512°
RAAN
171.8348°
Arg. of periapsis
354.7132°
True anomaly
5.4078°
Mean anomaly
5.3701°
Eccentric anomaly
5.38894°
Mean motion
3.69748 °/min
Orbital period
97.36 mins
BSTAR
0.0026818
Loading maneuver chart data...
Computing Atmospheric mass density...

Documentation

Showing up to 5 results
|